Temp
18 18 18 16 16 15 15 14 14 14 14 13 13 13 13 14 14 14 13 12 12 11 11 10 10 10 10 10 10 10 10 10 11 11 11 14 14 14 14 14 14 13 13
16 18 17 17 16 15 14 14 14 14 13 13 13 12 12 13 13 13 13 12 11 11 10 10 10 10 10 9 10 9 9 10 10 9 10 10 13 14 14 14 14 13 13
16 15 17 17 16 15 14 14 13 13 13 13 12 12 12 12 13 13 13 12 11 11 10 10 9 9 9 9 9 9 9 9 9 9 9 9 9 10 13 13 13 13 13
17 16 17 17 16 16 14 14 13 13 13 12 12 11 11 11 12 12 12 12 12 11 10 10 9 9 9 9 9 9 9 9 8 8 9 10 10 9 9 13 13 13 13
16 15 16 16 16 15 14 13 13 13 12 12 11 11 11 11 11 11 12 12 12 11 11 10 9 9 8 8 8 8 8 9 9 8 8 8 9 11 9 8 9 11 11
16 16 16 16 16 15 14 13 13 13 12 12 11 10 10 10 10 10 11 11 12 11 11 10 9 9 8 8 8 8 8 8 8 8 8 8 8 8 8 7 7 8 10
14 14 14 15 15 15 14 13 13 13 12 11 11 10 10 10 10 10 10 11 11 11 11 10 9 9 9 8 8 8 8 7 8 8 8 8 8 9 9 9 7 6 8
14 14 15 16 15 15 14 13 13 12 12 11 10 10 10 10 9 10 10 10 10 10 10 10 9 9 8 8 8 8 8 8 8 8 8 8 8 9 9 9 7 5 6
15 14 15 16 15 15 14 13 12 12 12 11 10 10 10 9 9 9 9 10 10 10 10 9 8 8 8 8 8 8 8 8 8 8 8 8 8 8 8 8 8 7 5
14 14 14 15 15 15 14 13 12 12 11 11 10 10 10 9 9 9 9 9 9 9 9 9 8 8 8 8 8 8 8 8 8 8 8 8 8 8 8 8 8 8 7
14 14 14 16 15 15 14 13 13 12 11 11 10 10 10 9 9 9 9 9 8 8 8 8 8 8 8 8 8 8 8 8 8 7 7 7 7 7 7 7 7 7 7
14 13 14 15 15 15 14 13 13 12 11 11 10 10 9 9 9 9 8 8 8 8 8 8 8 8 8 8 7 7 7 7 7 7 7 7 7 7 7 7 7 7 7
14 13 13 13 14 15 14 14 13 12 11 10 10 10 9 9 9 8 8 8 8 7 7 7 7 7 7 7 7 7 7 7 7 7 7 7 6 6 6 6 6 6 6
13 12 12 12 14 14 14 13 13 12 11 10 10 10 9 8 8 8 7 7 7 7 7 7 7 7 7 7 6 6 6 6 6 6 6 6 6 6 6 6 6 6 6
13 12 12 11 13 13 14 13 12 12 11 10 9 9 8 8 8 7 7 7 7 7 7 6 6 6 6 6 6 6 6 6 5 5 6 6 6 6 5 5 5 5 5
13 13 12 12 13 13 13 13 13 12 11 10 9 9 8 8 7 7 7 7 7 6 6 6 6 6 6 6 6 5 5 5 5 5 5 5 5 5 5 5 5 4 3
13 13 12 12 13 13 13 13 12 12 11 9 9 8 8 7 7 7 6 6 6 6 6 6 5 5 5 6 5 5 5 5 5 5 5 5 5 5 5 5 4 4 4
13 13 12 13 14 13 13 12 12 11 10 9 8 8 8 7 7 6 6 6 6 6 5 5 5 5 6 6 5 5 5 5 5 5 5 5 5 5 4 4 4 4 4
12 12 13 13 13 12 12 11 11 11 10 9 9 8 8 7 7 6 6 6 6 6 6 5 5 5 6 6 5 4 4 4 5 5 5 5 5 5 4 4 3 3 3
13 13 12 12 11 11 11 11 11 10 10 9 9 8 8 7 7 6 6 6 6 5 5 5 5 5 5 6 5 5 4 4 4 4 4 5 5 4 4 3 3 1 2
12 11 11 10 10 10 9 9 9 8 8 8 8 7 7 7 6 6 6 5 5 5 5 5 5 5 5 5 6 5 5 4 4 3 3 3 4 4 4 3 2 2 2
11 10 9 9 9 8 7 7 7 7 7 7 7 6 6 6 6 6 6 5 5 5 5 5 5 5 5 5 5 5 5 5 4 3 3 3 3 3 3 2 2 2 2
9 9 8 8 8 7 7 6 6 6 6 6 6 6 6 6 6 6 6 5 5 5 5 5 5 5 5 5 5 4 4 4 4 3 3 3 2 2 2 2 2 1 1
8 7 7 7 7 7 7 6 6 6 6 6 6 6 6 6 6 6 6 5 5 5 4 4 4 4 4 4 4 3 3 3 3 3 2 2 2 1 1 1 1 1 1
2 3 3 5 6 6 6 6 6 6 5 5 5 5 5 5 5 5 5 5 5 5 5 4 4 3 3 2 2 2 2 1 1 1 1 0 0 -0 0 1 0 1 1
1 1 2 4 4 5 5 5 5 5 5 4 4 4 4 4 4 4 4 4 4 4 5 4 4 3 2 2 1 1 0 0 0 0 0 -0 -1 -1 -0 0 0 -0 1
Height
797 803 807 808 809 809 810 810 809 809 808 807 806 804 803 801 800 799 799 797 797 797 796 794 793 791 790 788 787 784 781 779 776 771 767 764 766 767 768 768 769 769 769
797 801 806 807 807 808 809 809 808 808 808 806 806 804 802 799 798 797 796 794 795 795 794 793 791 790 789 787 787 785 782 780 778 776 772 769 768 768 768 768 769 770 770
794 799 803 804 806 806 807 807 807 807 806 805 803 802 800 798 796 795 794 792 793 792 792 791 790 789 788 786 786 785 784 781 780 779 779 776 775 770 768 768 769 770 770
790 795 799 802 804 805 806 805 805 805 804 803 801 799 797 796 795 794 792 791 791 790 789 789 788 787 786 785 784 784 783 782 780 780 780 780 780 777 775 770 769 770 770
793 795 797 799 801 802 803 803 803 803 802 801 799 797 795 796 794 791 790 789 788 787 787 787 787 785 785 784 784 783 782 781 780 780 780 780 777 776 775 776 772 769 768
792 794 796 798 798 798 800 802 802 802 800 799 797 795 795 794 792 790 789 788 787 786 785 785 785 784 783 782 781 781 781 780 779 779 779 779 779 778 779 777 775 773 769
790 792 795 796 797 798 798 800 801 800 798 797 795 795 794 792 790 789 788 787 786 785 784 783 783 783 782 781 780 779 779 778 778 778 778 778 778 777 777 776 776 774 770
789 791 791 793 795 796 796 797 798 798 797 796 795 793 793 791 789 788 787 785 785 784 783 782 781 780 780 779 778 778 777 777 776 775 775 775 775 775 775 775 775 775 772
785 786 787 790 792 793 794 794 795 795 795 795 793 793 791 790 788 786 785 784 783 781 781 780 779 777 777 776 776 775 774 774 774 773 773 773 773 772 772 772 773 774 777
779 781 783 786 789 790 791 791 792 793 793 793 792 791 790 788 786 785 784 782 781 780 779 778 777 776 775 774 774 773 772 772 771 771 770 770 770 770 770 770 770 771 771
777 779 781 783 785 786 787 789 790 790 791 791 790 789 788 786 785 784 782 781 779 778 777 776 776 775 775 774 773 772 771 770 769 768 768 767 767 766 766 766 767 768 768
771 773 775 778 781 782 783 785 786 787 787 787 786 785 784 784 783 781 780 778 777 776 775 774 773 773 772 772 771 770 769 768 767 766 765 764 763 763 763 762 762 763 763
770 770 771 772 774 777 779 780 782 783 783 782 781 781 780 780 779 779 777 776 775 774 773 772 771 771 770 770 769 768 767 766 765 763 762 761 760 759 758 758 757 757 757
768 768 769 769 770 772 774 776 779 780 780 780 779 778 778 778 777 776 775 774 772 771 770 769 768 768 767 767 766 765 764 763 761 760 758 757 756 754 754 754 754 753 753
762 763 764 765 766 768 770 773 774 775 776 776 776 776 776 775 774 773 772 771 769 768 767 766 765 765 764 763 762 762 760 759 757 755 754 753 752 751 751 750 749 749 748
757 759 759 761 763 764 766 768 770 770 770 770 770 771 772 772 771 771 769 768 766 766 765 764 763 763 762 760 759 757 755 755 754 752 751 750 749 747 745 745 744 745 744
752 755 757 758 759 761 763 765 765 765 765 766 767 768 767 767 766 766 765 764 764 763 761 761 761 760 759 758 757 755 753 751 749 748 747 746 745 744 743 741 739 739 740
749 752 754 756 758 760 761 762 762 762 762 762 763 763 763 762 763 763 763 762 761 760 759 757 756 755 754 752 751 750 748 747 745 744 743 742 740 740 739 737 736 734 734
748 751 753 753 754 756 758 758 757 757 757 758 758 759 759 758 759 758 759 758 758 756 754 752 751 751 748 747 746 745 744 743 740 738 738 736 735 734 733 731 730 727 726
747 750 751 752 753 753 753 754 753 753 753 753 754 754 754 754 755 756 755 755 754 752 752 749 747 746 743 741 740 739 738 736 734 733 732 732 730 729 728 726 725 722 720
747 749 749 750 751 751 751 750 750 749 750 749 749 751 751 750 750 750 750 748 748 746 744 743 741 739 737 735 734 734 732 731 729 728 727 726 724 723 722 721 720 717 717
744 746 746 746 747 748 748 748 748 747 746 746 745 744 743 742 743 742 742 741 741 740 738 736 733 732 730 730 729 728 727 726 724 721 719 718 717 717 716 715 713 711 711
745 745 746 745 745 744 744 745 745 745 745 743 742 741 740 739 738 737 735 733 733 733 731 730 728 726 725 725 724 723 722 720 718 715 713 711 710 709 708 708 707 705 703
746 745 746 747 746 743 742 742 743 744 743 743 742 740 738 737 735 733 732 730 728 727 725 723 721 719 717 717 717 717 715 713 711 709 707 705 704 702 700 700 698 697 695
752 750 751 750 747 746 745 744 743 741 740 739 737 736 734 732 729 727 726 724 721 720 718 716 714 713 711 709 710 710 708 706 705 704 700 697 695 694 692 691 689 687 685
758 757 756 751 747 745 743 742 740 738 736 733 732 731 729 726 723 721 717 716 714 712 710 708 707 705 704 703 702 701 701 700 699 697 693 690 688 687 684 683 682 680 678
Wind_Speed
12 11 6 4 1 1 1 1 3 5 7 9 10 11 11 12 11 10 7 11 11 12 13 10 10 10 12 12 14 14 15 16 17 16 19 6 4 2 2 2 2 2 2
8 9 9 7 4 3 1 1 2 4 7 9 11 10 14 12 14 12 13 10 12 11 12 10 10 9 11 11 12 13 13 13 14 10 8 3 2 5 4 3 3 2 1
10 9 9 9 5 6 3 2 3 6 8 10 11 12 12 11 11 11 10 8 9 12 13 10 9 9 9 9 10 11 11 11 13 12 4 3 3 6 8 5 3 1 4
7 7 8 8 6 3 3 4 5 7 8 11 11 11 12 13 13 14 11 11 12 12 12 11 9 9 7 7 8 9 9 10 6 8 5 5 5 3 4 2 5 5 4
6 7 9 7 4 3 4 5 5 8 8 10 10 10 11 13 14 13 12 11 11 11 12 11 9 7 6 6 8 7 7 7 5 2 7 9 14 8 2 3 7 13 16
7 7 10 8 6 4 2 4 6 7 8 9 9 10 11 12 13 13 13 11 9 8 9 11 9 7 6 6 6 6 6 6 6 7 4 4 3 6 3 2 4 8 14
8 8 8 10 7 6 5 4 4 6 7 8 9 9 10 11 12 12 12 11 10 8 7 8 9 8 7 8 7 7 7 5 6 7 7 7 8 9 10 10 6 3 13
7 7 9 9 8 8 5 4 4 5 7 8 9 9 9 10 11 11 12 12 11 10 8 10 9 9 9 8 8 8 8 7 7 7 8 9 9 8 8 9 3 3 3
8 9 9 11 10 9 6 4 4 5 6 8 9 9 10 11 12 12 11 11 10 9 9 10 10 9 9 9 9 10 9 8 9 9 9 9 9 10 10 10 8 6 2
9 8 9 12 11 9 7 5 5 5 6 7 8 8 10 11 11 11 11 10 11 10 10 11 11 11 11 11 11 11 10 10 10 10 10 10 10 10 10 11 10 11 12
8 7 9 13 12 9 8 7 8 7 6 7 8 8 10 10 10 10 10 10 12 11 11 11 11 12 12 12 12 13 12 13 13 11 12 12 11 12 13 12 12 14 14
8 8 11 11 10 11 12 12 10 10 8 7 6 7 8 9 9 9 10 11 11 11 11 11 12 12 11 12 12 13 13 13 14 13 13 13 12 13 13 14 15 15 15
7 7 8 12 14 14 14 15 14 13 11 8 7 8 8 9 10 9 10 10 10 10 10 10 11 11 12 13 12 13 14 14 14 15 15 15 14 15 14 15 16 16 17
8 7 6 7 10 12 15 14 13 13 12 10 9 9 9 10 10 10 10 10 9 10 10 10 11 11 12 12 13 12 12 14 15 15 16 16 16 16 15 16 16 17 18
8 8 7 7 12 13 14 13 13 14 14 13 12 12 10 11 10 10 11 10 10 9 9 11 10 10 11 11 11 13 15 15 15 15 16 17 17 17 16 17 18 16 16
8 8 8 8 11 13 12 11 13 16 16 17 16 13 12 11 11 12 12 12 11 11 11 11 12 12 12 11 14 14 14 14 15 17 16 16 17 17 17 17 17 18 20
7 7 7 8 9 7 6 10 15 17 19 19 17 15 12 12 13 12 13 13 12 12 13 13 14 15 15 14 14 15 15 15 16 16 16 17 17 15 16 16 16 17 19
6 6 6 6 6 6 7 10 15 16 16 16 16 15 14 14 14 13 14 15 13 14 15 16 15 16 18 16 15 17 17 18 17 16 16 17 18 17 16 16 18 19 20
6 8 5 2 2 7 11 14 15 13 15 15 16 14 14 14 14 15 15 15 15 17 17 17 18 19 21 20 19 19 21 21 22 19 18 18 18 18 17 17 20 20 23
3 1 1 3 7 11 12 14 14 12 13 15 15 13 13 14 15 16 15 17 18 20 21 21 21 21 22 20 19 18 18 21 24 24 23 22 21 20 19 18 20 21 25
2 0 3 7 9 8 9 10 9 10 10 8 10 13 14 15 16 17 18 20 21 20 22 23 23 22 22 22 21 21 22 23 25 24 25 24 23 22 21 20 20 25 24
4 6 6 8 8 8 8 9 11 10 11 11 13 15 16 16 17 19 21 22 22 23 24 25 26 25 24 22 21 21 21 22 24 27 28 27 24 25 26 25 26 25 23
4 4 6 7 8 8 5 8 11 10 11 11 14 16 18 19 21 22 24 24 24 23 24 24 25 27 25 24 23 23 22 23 24 27 29 27 24 24 27 31 32 29 28
4 3 5 8 6 4 7 9 11 11 12 15 17 18 19 20 20 21 21 21 22 22 24 24 25 27 28 25 23 25 25 22 20 22 25 23 23 23 23 25 27 29 28
17 16 14 15 14 12 11 10 11 12 13 17 20 21 21 22 23 22 23 24 26 25 26 27 25 24 25 26 23 22 22 24 24 21 24 25 24 24 24 23 27 31 32
17 16 18 18 16 14 14 14 15 16 18 21 21 21 21 22 22 23 26 26 27 29 29 31 32 32 29 31 30 30 26 24 23 22 22 22 22 23 23 22 24 25 27
Wind_Direction
143 133 160 172 186 136 42 12 15 3 350 340 333 323 311 304 294 296 287 286 293 293 306 320 317 323 326 330 334 338 345 340 353 342 336 293 251 230 222 130 177 118 113
129 152 180 170 160 170 171 109 357 346 340 327 324 317 311 311 313 310 288 287 273 281 296 299 311 318 321 333 337 340 345 347 2 1 320 310 216 229 185 170 119 117 20
155 156 174 183 184 177 213 236 305 320 326 316 325 324 317 321 315 318 318 297 271 293 289 300 305 312 319 330 334 336 341 341 345 8 344 347 356 334 172 189 215 258 307
126 141 156 168 161 168 244 280 299 310 316 312 323 325 322 318 316 313 309 297 290 281 285 289 299 303 312 323 331 330 334 327 6 356 356 316 314 337 342 337 231 244 303
169 169 160 147 174 218 254 283 307 305 314 317 328 328 322 314 313 313 311 302 294 275 280 291 293 293 305 312 318 330 330 331 313 340 327 329 330 324 219 278 335 336 326
161 164 164 177 188 188 198 274 293 311 318 330 335 334 321 318 321 323 316 313 308 281 276 287 290 297 296 299 297 304 312 313 315 313 275 282 305 333 351 332 333 320 320
179 188 183 198 179 182 200 250 289 318 329 336 338 332 329 327 323 320 320 319 316 307 280 267 289 283 282 284 289 290 292 293 292 292 299 284 274 271 281 286 300 295 317
202 199 192 176 193 197 211 248 295 318 338 332 337 343 336 335 327 319 316 313 305 305 290 281 283 282 287 290 291 285 290 290 285 282 276 281 287 296 306 293 279 326 299
204 192 197 189 202 203 207 251 287 321 317 328 338 339 341 340 336 331 321 311 303 302 292 285 280 282 281 280 277 276 278 278 278 278 279 279 279 279 279 285 284 260 309
205 192 193 194 205 211 219 247 264 281 302 311 322 329 338 337 340 336 329 318 313 302 294 291 290 288 284 281 277 274 276 273 273 276 277 275 278 279 281 272 270 263 255
197 192 204 208 208 210 216 239 242 259 275 285 310 324 329 331 338 334 330 326 318 319 310 305 300 296 294 289 283 279 279 276 278 277 275 276 275 273 273 273 273 267 267
199 189 193 206 219 222 220 220 236 243 247 266 293 306 317 315 321 325 324 323 322 317 310 307 303 299 297 293 287 284 281 280 281 280 277 274 274 270 269 270 270 270 268
247 214 198 208 229 233 228 219 226 234 239 248 270 293 297 296 305 309 312 315 315 314 314 310 307 304 298 293 291 287 285 284 283 283 281 280 276 273 271 269 268 266 266
234 225 228 222 228 232 224 213 227 238 247 254 272 283 283 282 292 299 302 306 310 313 313 308 302 300 300 295 292 290 287 287 287 286 282 281 276 271 270 268 270 273 273
211 213 209 216 224 221 213 219 236 241 253 255 262 271 277 277 285 291 296 303 307 311 310 307 307 301 296 297 284 285 289 288 285 284 284 284 282 281 278 269 267 265 270
215 211 206 203 210 208 208 227 247 251 249 251 253 262 266 271 275 283 289 297 302 303 301 302 301 296 294 288 286 293 298 298 294 293 293 288 285 282 279 277 275 272 264
200 199 203 200 199 206 233 255 263 259 247 247 254 258 259 263 270 277 280 284 289 294 298 300 299 297 298 301 296 299 299 299 295 291 290 290 289 286 284 282 280 276 270
189 189 189 196 221 246 263 272 267 253 238 244 254 256 258 262 268 273 279 287 292 293 294 294 293 293 294 296 292 292 292 292 290 286 284 283 286 286 285 285 281 278 275
190 196 173 136 276 281 289 288 278 252 238 239 250 259 262 261 267 270 280 285 283 284 286 288 287 286 294 296 294 290 287 289 288 290 288 284 282 285 281 272 274 280 283
123 195 224 263 268 275 279 273 261 256 255 247 244 258 258 253 266 272 276 284 283 284 289 287 286 289 290 299 299 300 289 287 293 298 295 291 281 284 283 269 270 272 278
165 350 264 265 271 279 277 273 275 263 270 253 251 261 261 260 262 267 274 279 278 277 276 275 282 285 287 290 293 294 285 283 288 290 290 288 284 283 275 266 267 273 287
208 229 238 254 256 256 260 268 268 266 260 260 252 250 252 254 258 264 271 276 273 269 270 275 278 279 281 278 282 281 281 283 274 276 288 291 290 280 277 271 271 270 272
272 262 246 250 248 217 243 262 270 264 259 255 257 266 273 272 271 265 263 264 266 268 271 275 275 278 279 280 280 279 276 278 274 276 283 288 285 278 276 271 272 276 274
345 345 306 277 273 257 239 257 275 279 274 276 279 282 281 281 279 278 277 277 276 272 270 270 272 274 279 278 276 279 280 277 273 277 285 285 285 282 280 281 277 274 269
358 356 341 325 322 324 315 310 301 292 286 281 284 287 286 284 282 279 278 277 275 270 271 273 276 277 279 278 282 281 283 286 287 287 287 284 279 275 271 274 273 276 276
347 341 327 314 313 313 307 303 300 296 291 288 285 285 287 285 284 283 284 279 275 278 276 275 274 273 272 280 281 281 281 282 282 281 273 273 267 262 266 273 274 270 272